GW1859 Weather Reports


Display with metric or nautical units.
time (UTC)temp
F
wind
direction
speed
MPH
gust
MPH
rain 1hr
in
rain 24hr
in
rain mn
in
humidity
%
barometer
mb
20260504050646 70 214 6.0 7.0 0.00 0.00 0.00 45 1008.9
20260504050143 70 276 7.0 13.0 0.00 0.00 0.00 45 1009.0
20260504045641 70 185 7.0 13.0 0.00 0.00 0.00 45 1008.9
20260504045140 70 217 4.0 6.0 0.00 0.00 0.00 44 1008.7
20260504044638 70 214 4.0 6.0 0.00 0.00 0.00 44 1008.9
20260504044135 70 158 5.0 7.0 0.00 0.00 0.00 44 1008.7
20260504043632 70 86 5.0 8.0 0.00 0.00 0.00 43 1008.7
20260504043129 70 96 5.0 7.0 0.00 0.00 0.00 43 1008.8
20260504042626 71 186 4.0 7.0 0.00 0.00 0.00 42 1008.7
20260504042123 71 172 4.0 6.0 0.00 0.00 0.00 42 1008.9
20260504041619 70 201 5.0 10.0 0.00 0.00 0.00 42 1009.1
20260504041115 70 157 4.0 8.0 0.00 0.00 0.00 41 1009.0
20260504040613 70 162 3.0 5.0 0.00 0.00 0.00 41 1009.0
20260504040109 70 197 3.0 5.0 0.00 0.00 0.00 41 1009.2
20260504035606 70 83 3.0 5.0 0.00 0.00 0.00 41 1009.0
20260504035102 70 203 2.0 2.0 0.00 0.00 0.00 41 1008.9
20260504034600 69 202 2.0 2.0 0.00 0.00 0.00 41 1009.1
20260504034057 69 197 3.0 3.0 0.00 0.00 0.00 41 1009.0
20260504033555 70 217 3.0 5.0 0.00 0.00 0.00 41 1009.0
20260504033052 70 151 2.0 2.0 0.00 0.00 0.00 40 1009.1
20260504032549 69 162 2.0 3.0 0.00 0.00 0.00 40 1009.0
20260504032046 69 132 3.0 3.0 0.00 0.00 0.00 41 1009.1
20260504031543 69 107 1.0 1.0 0.00 0.00 0.00 40 1009.0
20260504031039 69 117 1.0 2.0 0.00 0.00 0.00 40 1009.2
20260504030536 69 126 0.0 0.0 0.00 0.00 0.00 41 1009.2
20260504030032 70 158 1.0 1.0 0.00 0.00 0.00 40 1009.0
20260504025530 70 199 0.0 1.0 0.00 0.00 0.00 39 1008.9
20260504025026 70 112 0.0 0.0 0.00 0.00 0.00 39 1008.9
20260504024523 71 164 2.0 3.0 0.00 0.00 0.00 38 1008.9
20260504024020 71 119 0.0 0.0 0.00 0.00 0.00 38 1009.1
20260504023517 72 105 0.0 1.0 0.00 0.00 0.00 38 1009.0
20260504023013 72 181 2.0 3.0 0.00 0.00 0.00 37 1008.9
20260504022509 72 177 2.0 3.0 0.00 0.00 0.00 36 1009.0
20260504022006 72 157 1.0 2.0 0.00 0.00 0.00 37 1009.1
20260504021503 72 133 0.0 1.0 0.00 0.00 0.00 37 1008.9
20260504021000 72 130 0.0 0.0 0.00 0.00 0.00 37 1008.9
20260504020456 72 232 0.0 2.0 0.00 0.00 0.00 38 1008.9
20260504015953 72 130 0.0 0.0 0.00 0.00 0.00 37 1008.9
20260504015449 72 141 0.0 0.0 0.00 0.00 0.00 37 1009.1
20260504014945 72 133 0.0 0.0 0.00 0.00 0.00 37 1009.0
20260504014441 72 130 0.0 0.0 0.00 0.00 0.00 37 1009.0
20260504013938 73 137 0.0 0.0 0.00 0.00 0.00 37 1008.9
20260504013437 73 209 1.0 2.0 0.00 0.00 0.00 36 1008.8
20260504012933 74 133 0.0 0.0 0.00 0.00 0.00 36 1008.9
20260504012431 74 162 0.0 1.0 0.00 0.00 0.00 35 1009.0
20260504011928 75 146 0.0 1.0 0.00 0.00 0.00 35 1009.0
20260504011425 76 191 1.0 2.0 0.00 0.00 0.00 34 1008.9
20260504010920 76 141 1.0 2.0 0.00 0.00 0.00 33 1009.1
20260504010417 77 339 0.0 0.0 0.00 0.00 0.00 33 1008.9
20260504005913 77 148 0.0 1.0 0.00 0.00 0.00 32 1009.0
20260504005410 78 138 1.0 1.0 0.00 0.00 0.00 31 1009.1
20260504004908 78 161 3.0 5.0 0.00 0.00 0.00 30 1009.0
20260504004405 79 135 3.0 3.0 0.00 0.00 0.00 29 1009.2
20260504003902 79 163 1.0 2.0 0.00 0.00 0.00 29 1009.1
20260504003358 80 153 1.0 1.0 0.00 0.00 0.00 28 1009.2
20260504002855 80 0 1.0 2.0 0.00 0.00 0.00 28 1009.3
20260504002352 81 221 3.0 5.0 0.00 0.00 0.00 27 1009.3
20260504001849 81 157 3.0 3.0 0.00 0.00 0.00 27 1009.5
20260504001347 81 179 5.0 9.0 0.00 0.00 0.00 27 1009.6
20260504000843 81 139 1.0 2.0 0.00 0.00 0.00 27 1009.9
20260504000340 82 185 4.0 5.0 0.00 0.00 0.00 26 1009.7
20260503235838 82 197 3.0 3.0 0.00 0.00 0.00 26 1009.8
20260503235335 82 101 3.0 5.0 0.00 0.00 0.00 26 1009.8
20260503234833 82 199 5.0 6.0 0.00 0.00 0.00 26 1009.9
20260503234330 83 183 3.0 6.0 0.00 0.00 0.00 25 1009.8
20260503233828 83 167 4.0 7.0 0.00 0.00 0.00 25 1009.7
20260503233323 83 113 4.0 6.0 0.00 0.00 0.00 25 1009.7
20260503232820 83 174 5.0 7.0 0.00 0.00 0.00 24 1010.0
20260503232318 83 171 6.0 7.0 0.00 0.00 0.00 24 1010.0
20260503231816 84 270 5.0 6.0 0.00 0.00 0.00 24 1010.1
20260503231312 84 235 5.0 7.0 0.00 0.00 0.00 23 1009.8
20260503230808 84 114 3.0 5.0 0.00 0.00 0.00 23 1009.9
20260503230306 86 168 4.0 5.0 0.00 0.00 0.00 24 1010.1
20260503225803 85 180 7.0 9.0 0.00 0.00 0.00 23 1010.0
20260503225258 86 172 3.0 5.0 0.00 0.00 0.00 24 1010.1
20260503224755 86 196 7.0 9.0 0.00 0.00 0.00 23 1010.1
20260503224253 86 193 6.0 8.0 0.00 0.00 0.00 23 1010.0
20260503223750 86 253 5.0 7.0 0.00 0.00 0.00 23 1010.1
20260503223248 86 161 3.0 5.0 0.00 0.00 0.00 23 1010.2
20260503222743 86 172 4.0 6.0 0.00 0.00 0.00 22 1010.3
20260503222242 86 223 3.0 6.0 0.00 0.00 0.00 22 1010.4
20260503221740 87 191 5.0 7.0 0.00 0.00 0.00 21 1010.3
20260503221237 87 129 4.0 6.0 0.00 0.00 0.00 20 1010.5
20260503220734 86 225 2.0 3.0 0.00 0.00 0.00 22 1010.4
20260503220231 87 195 4.0 10.0 0.00 0.00 0.00 21 1010.2
20260503215727 87 175 3.0 5.0 0.00 0.00 0.00 21 1010.5
20260503215224 87 285 3.0 7.0 0.00 0.00 0.00 20 1010.4
20260503214723 87 149 3.0 3.0 0.00 0.00 0.00 21 1010.7
20260503214219 86 97 4.0 6.0 0.00 0.00 0.00 20 1010.7
20260503213717 86 218 2.0 3.0 0.00 0.00 0.00 22 1010.6
20260503213214 88 208 3.0 5.0 0.00 0.00 0.00 22 1010.7
20260503212711 88 210 3.0 5.0 0.00 0.00 0.00 22 1010.9
20260503212209 87 207 3.0 5.0 0.00 0.00 0.00 21 1010.9
20260503211706 88 215 3.0 3.0 0.00 0.00 0.00 20 1011.0
20260503211202 88 155 5.0 7.0 0.00 0.00 0.00 20 1011.3
20260503210658 88 159 8.0 16.0 0.00 0.00 0.00 20 1011.4
20260503210155 87 259 2.0 3.0 0.00 0.00 0.00 21 1011.3
20260503205650 88 213 3.0 5.0 0.00 0.00 0.00 19 1011.3
20260503205146 88 185 3.0 5.0 0.00 0.00 0.00 21 1011.3
20260503204643 89 218 6.0 11.0 0.00 0.00 0.00 19 1011.6
20260503204141 88 202 4.0 7.0 0.00 0.00 0.00 19 1011.7
20260503203638 88 129 2.0 3.0 0.00 0.00 0.00 20 1011.8
20260503203136 88 191 5.0 6.0 0.00 0.00 0.00 22 1012.1
20260503202633 87 225 4.0 5.0 0.00 0.00 0.00 22 1012.1
20260503202131 87 224 4.0 5.0 0.00 0.00 0.00 23 1012.0
20260503201629 86 195 7.0 9.0 0.00 0.00 0.00 22 1012.5
20260503201125 87 197 7.0 10.0 0.00 0.00 0.00 22 1012.2
20260503200622 87 243 5.0 6.0 0.00 0.00 0.00 22 1012.6
20260503200118 86 260 7.0 8.0 0.00 0.00 0.00 19 1012.6
20260503195615 87 236 5.0 7.0 0.00 0.00 0.00 20 1012.8
20260503195112 86 224 1.0 2.0 0.00 0.00 0.00 20 1012.7
20260503194609 87 218 4.0 8.0 0.00 0.00 0.00 20 1012.8
20260503194104 87 246 4.0 5.0 0.00 0.00 0.00 20 1012.7
20260503193601 86 202 5.0 9.0 0.00 0.00 0.00 20 1012.9
20260503193056 87 169 7.0 10.0 0.00 0.00 0.00 20 1013.0
20260503192553 86 184 5.0 6.0 0.00 0.00 0.00 20 1013.1
20260503192049 86 332 6.0 10.0 0.00 0.00 0.00 21 1013.0
20260503191545 86 245 4.0 5.0 0.00 0.00 0.00 21 1013.0
20260503191042 86 339 6.0 9.0 0.00 0.00 0.00 21 1013.0
20260503190539 86 185 2.0 2.0 0.00 0.00 0.00 22 1013.1
20260503190036 86 232 7.0 9.0 0.00 0.00 0.00 19 1013.3
20260503185532 86 196 5.0 8.0 0.00 0.00 0.00 21 1013.5
20260503185026 85 163 5.0 6.0 0.00 0.00 0.00 21 1013.5
20260503184523 85 316 4.0 6.0 0.00 0.00 0.00 21 1013.6
20260503184020 85 222 3.0 3.0 0.00 0.00 0.00 20 1013.5
20260503183516 85 142 6.0 8.0 0.00 0.00 0.00 22 1013.7
20260503183013 85 174 4.0 6.0 0.00 0.00 0.00 24 1013.8
20260503182512 85 145 4.0 7.0 0.00 0.00 0.00 23 1013.9
20260503182009 84 272 7.0 10.0 0.00 0.00 0.00 22 1013.8
20260503181507 84 218 6.0 8.0 0.00 0.00 0.00 24 1014.1
20260503181002 84 212 4.0 6.0 0.00 0.00 0.00 23 1014.2
20260503180500 84 227 5.0 7.0 0.00 0.00 0.00 20 1014.5
20260503175957 84 341 6.0 8.0 0.00 0.00 0.00 22 1014.2
20260503175455 84 320 5.0 8.0 0.00 0.00 0.00 20 1014.8
20260503174951 84 142 5.0 7.0 0.00 0.00 0.00 22 1015.0
20260503174449 84 306 3.0 3.0 0.00 0.00 0.00 24 1014.9
20260503173944 83 272 4.0 8.0 0.00 0.00 0.00 23 1014.9
20260503173440 84 120 3.0 5.0 0.00 0.00 0.00 26 1015.0
20260503172937 83 204 5.0 7.0 0.00 0.00 0.00 28 1015.2
20260503172434 83 99 5.0 8.0 0.00 0.00 0.00 29 1015.0
20260503171931 83 212 6.0 9.0 0.00 0.00 0.00 29 1015.3
20260503171427 82 174 2.0 2.0 0.00 0.00 0.00 29 1015.2
20260503170925 82 193 4.0 5.0 0.00 0.00 0.00 30 1015.3
20260503170421 82 130 4.0 7.0 0.00 0.00 0.00 30 1015.3
20260503150814 65 177 5.0 7.0 0.00 0.00 0.00 57 1016.6
20260503150309 65 230 4.0 5.0 0.00 0.00 0.00 57 1016.6
20260503140234 58 174 2.0 3.0 0.00 0.00 0.00 69 1017.1
20260503131203 50 139 2.0 3.0 0.00 0.00 0.00 77 1017.2
20260503130701 50 190 2.0 2.0 0.00 0.00 0.00 78 1017.4
20260503130158 49 137 2.0 3.0 0.00 0.00 0.00 79 1017.3
20260503120124 44 143 0.0 0.0 0.00 0.00 0.00 85 1017.0
20260503110551 45 136 0.0 0.0 0.00 0.00 0.00 84 1017.3
20260503090438 49 147 0.0 0.0 0.00 0.00 0.00 73 1018.4
20260503081404 51 148 0.0 0.0 0.00 0.00 0.00 67 1018.6
20260503080902 52 172 0.0 0.0 0.00 0.00 0.00 66 1018.5
20260503080358 52 163 0.0 1.0 0.00 0.00 0.00 65 1018.7
20260503072835 51 202 0.0 0.0 0.00 0.00 0.00 65 1018.8
20260503072332 51 170 0.0 0.0 0.00 0.00 0.00 65 1019.0
20260503071828 50 135 0.0 0.0 0.00 0.00 0.00 66 1019.1
20260503071325 50 136 0.0 0.0 0.00 0.00 0.00 66 1019.1
20260503070821 50 135 0.0 1.0 0.00 0.00 0.00 65 1019.0
20260503070320 50 135 0.0 0.0 0.00 0.00 0.00 65 1019.1
20260503060238 49 132 0.0 0.0 0.00 0.00 0.00 63 1019.8